Location: Unspecified
(38.7273°N, 77.0677°W)
Time: 20:04:38
(UTC-04:00)

CAS-4B - Pass Details

Date: 22 September 2021
Orbit: 528 x 541 km, 43.0° (Epoch: 24 October)

Event Time Altitude Azimuth Distance (km) Brightness Sun altitude
Exits shadow 05:02:58 65° 158° (SSE) 582 ? -22.5°
Maximum altitude 05:03:00 65° 154° (SSE) 582 ? -22.5°
Drops below altitude 10° 05:07:01 10° 72° (ENE) 1,770 ? -21.7°
Sets 05:09:16 0° 70° (ENE) 2,662 ? -21.3°
